PGT7LB LTFJ-LTCG

Flight info

Callsign PGT7LB
Flight time 1h 16m
Altitude 35000
Route VICEN UT380 ASMAP UL333 LATGA UT363 ESB UT364 ILHAN UW71 TEMEL
Aircraft A320/M-SDE3FGHIRWY/LB1

Departure

Time 2026-05-04 20:45
Airport Istanbul Sabiha Gökçen International Airport (LTFJ)

Arrival

Time 2026-05-04 22:01
Airport Trabzon International Airport (LTCG)
Time Latitude Longitude Altitude Speed Heading
2026-05-04 20:24 40.90892 29.31887 321 ft 0 kts 244°
2026-05-04 20:28 40.90893 29.31891 321 ft 3 kts 244°
2026-05-04 20:28 40.90905 29.31923 320 ft 4 kts 234°
2026-05-04 20:29 40.90915 29.31938 318 ft 4 kts 205°
2026-05-04 20:29 40.90938 29.31941 318 ft 2 kts 155°
2026-05-04 20:29 40.90940 29.31940 318 ft 0 kts 154°
2026-05-04 20:30 40.90934 29.31944 319 ft 4 kts 154°
2026-05-04 20:31 40.90888 29.31973 321 ft 11 kts 154°
2026-05-04 20:31 40.90840 29.32031 321 ft 7 kts 112°
2026-05-04 20:31 40.90822 29.32070 320 ft 7 kts 136°
2026-05-04 20:31 40.90769 29.32104 321 ft 10 kts 153°
2026-05-04 20:32 40.90694 29.32107 321 ft 13 kts 232°
2026-05-04 20:32 40.90648 29.31980 320 ft 17 kts 244°
2026-05-04 20:32 40.90597 29.31841 319 ft 15 kts 244°
2026-05-04 20:32 40.90547 29.31705 321 ft 18 kts 243°
2026-05-04 20:33 40.90493 29.31558 320 ft 13 kts 244°
2026-05-04 20:33 40.90453 29.31451 319 ft 14 kts 242°
2026-05-04 20:33 40.90362 29.31472 321 ft 17 kts 150°
2026-05-04 20:33 40.90265 29.31466 319 ft 16 kts 234°
2026-05-04 20:34 40.90211 29.31319 321 ft 19 kts 244°
2026-05-04 20:34 40.90148 29.31148 321 ft 22 kts 243°
2026-05-04 20:34 40.90101 29.31021 321 ft 24 kts 243°
2026-05-04 20:34 40.90049 29.30879 320 ft 16 kts 244°
2026-05-04 20:35 40.89999 29.30742 321 ft 17 kts 244°
2026-05-04 20:35 40.89929 29.30552 321 ft 18 kts 244°
2026-05-04 20:35 40.89876 29.30407 319 ft 17 kts 243°
2026-05-04 20:35 40.89824 29.30269 320 ft 16 kts 244°
2026-05-04 20:36 40.89794 29.30181 320 ft 15 kts 244°
2026-05-04 20:36 40.89750 29.30063 321 ft 14 kts 244°
2026-05-04 20:36 40.89707 29.29948 321 ft 14 kts 244°
2026-05-04 20:36 40.89665 29.29836 321 ft 14 kts 244°
2026-05-04 20:37 40.89623 29.29722 321 ft 14 kts 245°
2026-05-04 20:37 40.89580 29.29600 321 ft 15 kts 245°
2026-05-04 20:37 40.89535 29.29473 321 ft 15 kts 244°
2026-05-04 20:37 40.89486 29.29345 320 ft 16 kts 243°
2026-05-04 20:38 40.89446 29.29267 321 ft 6 kts 218°
2026-05-04 20:38 40.89427 29.29254 320 ft 0 kts 201°
2026-05-04 20:41 40.89405 29.29250 320 ft 6 kts 179°
2026-05-04 20:41 40.89364 29.29272 320 ft 4 kts 153°
2026-05-04 20:41 40.89354 29.29278 320 ft 0 kts 154°
2026-05-04 20:42 40.89347 29.29282 320 ft 4 kts 154°
2026-05-04 20:43 40.89300 29.29319 322 ft 11 kts 136°
2026-05-04 20:43 40.89301 29.29415 321 ft 0 kts 64°
2026-05-04 20:44 40.89328 29.29490 322 ft 37 kts 64°
2026-05-04 20:44 40.89546 29.30082 321 ft 103 kts 64°
2026-05-04 20:44 40.89938 29.31146 318 ft 153 kts 64°
2026-05-04 20:45 40.90441 29.32527 659 ft 168 kts 64°
2026-05-04 20:45 40.90940 29.33905 1392 ft 166 kts 61°
2026-05-04 20:45 40.91434 29.35278 2117 ft 164 kts 59°
2026-05-04 20:45 40.91957 29.36697 2489 ft 181 kts 57°
2026-05-04 20:46 40.92552 29.38268 2785 ft 203 kts 57°
2026-05-04 20:46 40.93215 29.40043 3109 ft 228 kts 62°
2026-05-04 20:46 40.93394 29.42203 3677 ft 254 kts 99°
2026-05-04 20:46 40.92484 29.44312 4299 ft 279 kts 133°
2026-05-04 20:47 40.90827 29.45712 5136 ft 287 kts 152°
2026-05-04 20:47 40.88951 29.46696 5963 ft 293 kts 157°
2026-05-04 20:47 40.87141 29.47910 6712 ft 292 kts 136°
2026-05-04 20:47 40.85841 29.49904 7435 ft 285 kts 112°
2026-05-04 20:48 40.85203 29.52333 8188 ft 280 kts 96°
2026-05-04 20:48 40.84762 29.54849 8960 ft 283 kts 97°
2026-05-04 20:48 40.84312 29.57409 9704 ft 289 kts 98°
2026-05-04 20:48 40.83852 29.60018 10283 ft 299 kts 98°
2026-05-04 20:49 40.83362 29.62795 10481 ft 322 kts 98°
2026-05-04 20:49 40.82830 29.65778 10640 ft 345 kts 99°
2026-05-04 20:49 40.82256 29.68950 10902 ft 362 kts 99°
2026-05-04 20:49 40.81656 29.72206 11489 ft 368 kts 99°
2026-05-04 20:50 40.81045 29.75500 12157 ft 371 kts 99°
2026-05-04 20:50 40.80431 29.78818 12830 ft 374 kts 99°
2026-05-04 20:50 40.79815 29.82165 13517 ft 376 kts 99°
2026-05-04 20:50 40.79198 29.85527 14152 ft 379 kts 99°
2026-05-04 20:51 40.78576 29.88920 14712 ft 382 kts 99°
2026-05-04 20:51 40.77946 29.92333 15266 ft 384 kts 99°
2026-05-04 20:51 40.77314 29.95773 15808 ft 387 kts 99°
2026-05-04 20:51 40.76674 29.99240 16337 ft 390 kts 99°
2026-05-04 20:52 40.76028 30.02730 16875 ft 393 kts 99°
2026-05-04 20:52 40.75377 30.06244 17393 ft 396 kts 99°
2026-05-04 20:52 40.74717 30.09785 17906 ft 399 kts 99°
2026-05-04 20:52 40.74053 30.13352 18439 ft 401 kts 99°
2026-05-04 20:53 40.73390 30.16924 18930 ft 402 kts 98°
2026-05-04 20:53 40.72723 30.20514 19369 ft 404 kts 98°
2026-05-04 20:53 40.72052 30.24116 19801 ft 406 kts 98°
2026-05-04 20:53 40.71371 30.27745 20232 ft 409 kts 98°
2026-05-04 20:54 40.70684 30.31391 20653 ft 411 kts 98°
2026-05-04 20:54 40.69994 30.35052 21074 ft 413 kts 98°
2026-05-04 20:54 40.69298 30.38743 21493 ft 416 kts 98°
2026-05-04 20:54 40.68599 30.42448 21919 ft 418 kts 97°
2026-05-04 20:55 40.67896 30.46186 22296 ft 421 kts 97°
2026-05-04 20:55 40.67191 30.49940 22682 ft 424 kts 97°
2026-05-04 20:55 40.66475 30.53720 23062 ft 427 kts 97°
2026-05-04 20:55 40.65750 30.57520 23436 ft 429 kts 97°
2026-05-04 20:56 40.65019 30.61341 23772 ft 432 kts 97°
2026-05-04 20:56 40.64282 30.65184 24073 ft 434 kts 97°
2026-05-04 20:56 40.63542 30.69041 24405 ft 436 kts 97°
2026-05-04 20:56 40.62795 30.72917 24697 ft 438 kts 97°
2026-05-04 20:57 40.62007 30.76801 25001 ft 440 kts 98°
2026-05-04 20:57 40.61183 30.80690 25291 ft 442 kts 98°
2026-05-04 20:57 40.60340 30.84590 25569 ft 444 kts 99°
2026-05-04 20:57 40.59487 30.88504 25815 ft 446 kts 98°
2026-05-04 20:58 40.58638 30.92429 26086 ft 447 kts 98°
2026-05-04 20:58 40.57796 30.96366 26355 ft 448 kts 98°
2026-05-04 20:58 40.56966 31.00279 26627 ft 450 kts 98°
2026-05-04 20:58 40.56125 31.04247 26909 ft 452 kts 98°
2026-05-04 20:59 40.55277 31.08229 27204 ft 453 kts 98°
2026-05-04 20:59 40.54421 31.12230 27465 ft 455 kts 98°
2026-05-04 20:59 40.53560 31.16239 27693 ft 457 kts 98°
2026-05-04 20:59 40.52699 31.20256 27988 ft 456 kts 98°
2026-05-04 21:00 40.51835 31.24261 28361 ft 455 kts 98°
2026-05-04 21:00 40.50969 31.28255 28804 ft 453 kts 98°
2026-05-04 21:00 40.50108 31.32230 29204 ft 452 kts 98°
2026-05-04 21:00 40.49249 31.36189 29626 ft 450 kts 98°
2026-05-04 21:01 40.48392 31.40128 30049 ft 447 kts 98°
2026-05-04 21:01 40.47537 31.44045 30350 ft 446 kts 98°
2026-05-04 21:01 40.46682 31.47960 30621 ft 445 kts 98°
2026-05-04 21:01 40.45828 31.51869 30853 ft 445 kts 98°
2026-05-04 21:02 40.44976 31.55777 31099 ft 445 kts 98°
2026-05-04 21:02 40.44122 31.59688 31326 ft 446 kts 98°
2026-05-04 21:02 40.43265 31.63605 31585 ft 446 kts 99°
2026-05-04 21:02 40.42407 31.67520 31834 ft 446 kts 99°
2026-05-04 21:03 40.41551 31.71434 32104 ft 446 kts 99°
2026-05-04 21:03 40.40692 31.75342 32365 ft 447 kts 99°
2026-05-04 21:03 40.39830 31.79254 32604 ft 447 kts 99°
2026-05-04 21:03 40.38964 31.83175 32838 ft 447 kts 99°
2026-05-04 21:04 40.38095 31.87095 33112 ft 448 kts 100°
2026-05-04 21:04 40.37222 31.91013 33370 ft 447 kts 101°
2026-05-04 21:04 40.36349 31.94929 33636 ft 448 kts 101°
2026-05-04 21:04 40.35477 31.98845 33909 ft 448 kts 101°
2026-05-04 21:05 40.34601 32.02760 34131 ft 448 kts 101°
2026-05-04 21:05 40.33721 32.06679 34334 ft 448 kts 101°
2026-05-04 21:05 40.32841 32.10601 34534 ft 449 kts 101°
2026-05-04 21:05 40.32011 32.14538 34748 ft 449 kts 101°
2026-05-04 21:06 40.31229 32.18507 34897 ft 450 kts 100°
2026-05-04 21:06 40.30469 32.22496 34960 ft 453 kts 100°
2026-05-04 21:06 40.28942 32.30527 34955 ft 455 kts 101°
2026-05-04 21:07 40.27358 32.38565 34953 ft 456 kts 101°
2026-05-04 21:07 40.25747 32.46593 34958 ft 457 kts 102°
2026-05-04 21:08 40.24123 32.54658 34951 ft 458 kts 102°
2026-05-04 21:08 40.22503 32.62725 34942 ft 458 kts 102°
2026-05-04 21:09 40.20881 32.70737 34939 ft 458 kts 102°
2026-05-04 21:09 40.19242 32.78808 34943 ft 459 kts 102°
2026-05-04 21:10 40.17599 32.86873 34935 ft 459 kts 102°
2026-05-04 21:10 40.16131 32.94984 34931 ft 457 kts 94°
2026-05-04 21:11 40.16434 33.03170 34926 ft 450 kts 74°
2026-05-04 21:11 40.18753 33.10671 34927 ft 445 kts 58°
2026-05-04 21:12 40.21827 33.17715 34922 ft 446 kts 59°
2026-05-04 21:12 40.24884 33.24798 34910 ft 448 kts 59°
2026-05-04 21:13 40.27919 33.31866 34896 ft 448 kts 59°
2026-05-04 21:13 40.30980 33.38986 34885 ft 449 kts 59°
2026-05-04 21:14 40.34049 33.46119 34883 ft 449 kts 59°
2026-05-04 21:14 40.37113 33.53274 34879 ft 450 kts 60°
2026-05-04 21:15 40.40165 33.60445 34880 ft 450 kts 60°
2026-05-04 21:15 40.43216 33.67607 34871 ft 450 kts 60°
2026-05-04 21:16 40.45611 33.75185 34869 ft 451 kts 71°
2026-05-04 21:16 40.47551 33.83017 34868 ft 451 kts 71°
2026-05-04 21:17 40.49495 33.90857 34872 ft 451 kts 71°
2026-05-04 21:17 40.51541 33.98660 34857 ft 452 kts 68°
2026-05-04 21:18 40.53926 34.06314 34855 ft 453 kts 66°
2026-05-04 21:18 40.56400 34.13940 34857 ft 453 kts 66°
2026-05-04 21:19 40.58808 34.21609 34852 ft 454 kts 68°
2026-05-04 21:19 40.60757 34.28023 34853 ft 454 kts 68°
2026-05-04 21:20 40.63097 34.35750 34854 ft 454 kts 68°
2026-05-04 21:20 40.65440 34.43469 34857 ft 454 kts 68°
2026-05-04 21:21 40.67792 34.51191 34852 ft 454 kts 68°
2026-05-04 21:21 40.70136 34.58911 34855 ft 454 kts 68°
2026-05-04 21:22 40.72472 34.66640 34861 ft 454 kts 68°
2026-05-04 21:22 40.74793 34.74374 34862 ft 453 kts 68°
2026-05-04 21:23 40.77088 34.82120 34857 ft 453 kts 69°
2026-05-04 21:23 40.79357 34.89877 34859 ft 453 kts 69°
2026-05-04 21:24 40.81626 34.97631 34857 ft 453 kts 69°
2026-05-04 21:24 40.83896 35.05383 34856 ft 453 kts 69°
2026-05-04 21:25 40.86157 35.13138 34872 ft 452 kts 69°
2026-05-04 21:25 40.88409 35.20888 34889 ft 451 kts 69°
2026-05-04 21:26 40.90650 35.28629 34889 ft 451 kts 70°
2026-05-04 21:26 40.92888 35.36374 34890 ft 451 kts 70°
2026-05-04 21:27 40.95108 35.44088 34886 ft 452 kts 70°
2026-05-04 21:27 40.97343 35.51862 34888 ft 452 kts 70°
2026-05-04 21:28 40.99574 35.59633 34891 ft 452 kts 70°
2026-05-04 21:28 41.01795 35.67423 34883 ft 452 kts 70°
2026-05-04 21:29 41.04043 35.75205 34884 ft 453 kts 69°
2026-05-04 21:29 41.06349 35.82995 34889 ft 454 kts 69°
2026-05-04 21:30 41.08657 35.90795 34895 ft 455 kts 69°
2026-05-04 21:30 41.10926 35.98637 34905 ft 456 kts 70°
2026-05-04 21:31 41.14222 36.10479 34913 ft 457 kts 71°
2026-05-04 21:32 41.16424 36.18386 34916 ft 457 kts 70°
2026-05-04 21:32 41.18636 36.26307 34926 ft 458 kts 70°
2026-05-04 21:33 41.20847 36.34234 34935 ft 458 kts 71°
2026-05-04 21:33 41.23052 36.42171 34936 ft 458 kts 71°
2026-05-04 21:34 41.25230 36.50121 34943 ft 458 kts 73°
2026-05-04 21:34 41.26214 36.58409 34953 ft 455 kts 91°
2026-05-04 21:35 41.25685 36.66766 34949 ft 454 kts 96°
2026-05-04 21:35 41.25063 36.75120 34942 ft 455 kts 96°
2026-05-04 21:36 41.24439 36.83481 34935 ft 455 kts 97°
2026-05-04 21:36 41.23808 36.91837 34937 ft 455 kts 97°
2026-05-04 21:37 41.23170 37.00196 34927 ft 455 kts 97°
2026-05-04 21:37 41.22530 37.08561 34929 ft 455 kts 97°
2026-05-04 21:38 41.21883 37.16930 34934 ft 456 kts 97°
2026-05-04 21:38 41.21227 37.25312 34931 ft 456 kts 97°
2026-05-04 21:39 41.20605 37.33690 34934 ft 456 kts 96°
2026-05-04 21:39 41.19997 37.42070 34923 ft 456 kts 97°
2026-05-04 21:40 41.19382 37.50449 34819 ft 457 kts 97°
2026-05-04 21:40 41.19069 37.54643 34579 ft 456 kts 97°
2026-05-04 21:40 41.18778 37.58839 34355 ft 456 kts 96°
2026-05-04 21:40 41.18541 37.63032 34130 ft 455 kts 95°
2026-05-04 21:41 41.18282 37.67165 33858 ft 455 kts 96°
2026-05-04 21:41 41.17970 37.71372 32825 ft 460 kts 97°
2026-05-04 21:41 41.17609 37.75599 31917 ft 462 kts 98°
2026-05-04 21:41 41.17222 37.79850 30961 ft 465 kts 98°
2026-05-04 21:42 41.16831 37.84096 30279 ft 462 kts 98°
2026-05-04 21:42 41.16447 37.88328 29294 ft 462 kts 98°
2026-05-04 21:42 41.16078 37.92567 28173 ft 464 kts 98°
2026-05-04 21:42 41.15733 37.96796 26573 ft 461 kts 98°
2026-05-04 21:43 41.15404 38.01013 25306 ft 454 kts 97°
2026-05-04 21:43 41.15091 38.05122 24479 ft 438 kts 97°
2026-05-04 21:43 41.14791 38.09052 23783 ft 421 kts 97°
2026-05-04 21:43 41.14485 38.12930 22973 ft 423 kts 98°
2026-05-04 21:44 41.14170 38.16794 22277 ft 420 kts 98°
2026-05-04 21:44 41.13853 38.20627 21617 ft 416 kts 98°
2026-05-04 21:44 41.13539 38.24426 20957 ft 413 kts 98°
2026-05-04 21:44 41.13227 38.28209 20312 ft 410 kts 98°
2026-05-04 21:45 41.12921 38.31952 19680 ft 407 kts 98°
2026-05-04 21:45 41.12615 38.35678 19058 ft 405 kts 98°
2026-05-04 21:45 41.12311 38.39376 18458 ft 402 kts 98°
2026-05-04 21:45 41.12006 38.43044 17828 ft 398 kts 98°
2026-05-04 21:46 41.11702 38.46674 17261 ft 393 kts 98°
2026-05-04 21:46 41.11403 38.50257 16730 ft 388 kts 98°
2026-05-04 21:46 41.11108 38.53790 16209 ft 383 kts 98°
2026-05-04 21:46 41.10811 38.57285 15711 ft 379 kts 98°
2026-05-04 21:47 41.10516 38.60731 15226 ft 375 kts 98°
2026-05-04 21:47 41.10220 38.64155 14731 ft 371 kts 98°
2026-05-04 21:47 41.09926 38.67537 14257 ft 368 kts 98°
2026-05-04 21:47 41.09634 38.70896 13748 ft 366 kts 98°
2026-05-04 21:48 41.09342 38.74234 13207 ft 363 kts 98°
2026-05-04 21:48 41.09049 38.77544 12674 ft 360 kts 98°
2026-05-04 21:48 41.08754 38.80821 12137 ft 357 kts 98°
2026-05-04 21:48 41.08456 38.84076 11574 ft 355 kts 98°
2026-05-04 21:49 41.08158 38.87301 11141 ft 350 kts 98°
2026-05-04 21:49 41.07869 38.90445 10991 ft 336 kts 98°
2026-05-04 21:49 41.07592 38.93454 10860 ft 323 kts 98°
2026-05-04 21:49 41.07324 38.96351 10737 ft 311 kts 98°
2026-05-04 21:50 41.07069 38.99143 10613 ft 300 kts 98°
2026-05-04 21:50 41.06822 39.01834 10478 ft 290 kts 98°
2026-05-04 21:50 41.06579 39.04462 10227 ft 285 kts 98°
2026-05-04 21:50 41.06341 39.07014 9987 ft 282 kts 98°
2026-05-04 21:51 41.06101 39.09574 9988 ft 280 kts 98°
2026-05-04 21:51 41.05901 39.12180 10017 ft 282 kts 92°
2026-05-04 21:51 41.06109 39.14764 9956 ft 285 kts 78°
2026-05-04 21:51 41.06769 39.17259 9494 ft 287 kts 69°
2026-05-04 21:52 41.07520 39.19698 9143 ft 284 kts 70°
2026-05-04 21:52 41.08234 39.22065 8991 ft 268 kts 70°
2026-05-04 21:52 41.08888 39.24253 8865 ft 249 kts 70°
2026-05-04 21:52 41.09504 39.26326 8749 ft 237 kts 70°
2026-05-04 21:53 41.10101 39.28350 8444 ft 237 kts 70°
2026-05-04 21:53 41.10725 39.30458 7766 ft 246 kts 70°
2026-05-04 21:53 41.11349 39.32557 7185 ft 248 kts 70°
2026-05-04 21:53 41.11958 39.34677 6718 ft 244 kts 75°
2026-05-04 21:54 41.12160 39.36907 6255 ft 240 kts 94°
2026-05-04 21:54 41.11794 39.39011 5788 ft 237 kts 111°
2026-05-04 21:54 41.11181 39.40992 5483 ft 227 kts 110°
2026-05-04 21:54 41.10604 39.42890 5237 ft 216 kts 110°
2026-05-04 21:55 41.10054 39.44695 5013 ft 206 kts 110°
2026-05-04 21:55 41.09520 39.46442 4801 ft 204 kts 110°
2026-05-04 21:55 41.08997 39.48149 4587 ft 196 kts 110°
2026-05-04 21:55 41.08498 39.49780 4394 ft 186 kts 110°
2026-05-04 21:56 41.08018 39.51344 4193 ft 182 kts 110°
2026-05-04 21:56 41.07541 39.52901 3992 ft 181 kts 110°
2026-05-04 21:56 41.07067 39.54448 3802 ft 181 kts 110°
2026-05-04 21:56 41.06593 39.55992 3610 ft 181 kts 110°
2026-05-04 21:57 41.06118 39.57539 3468 ft 180 kts 111°
2026-05-04 21:57 41.05643 39.59083 3325 ft 181 kts 111°
2026-05-04 21:57 41.05178 39.60594 3103 ft 172 kts 111°
2026-05-04 21:57 41.04740 39.62018 2868 ft 164 kts 111°
2026-05-04 21:58 41.04312 39.63408 2626 ft 162 kts 111°
2026-05-04 21:58 41.03889 39.64782 2388 ft 161 kts 112°
2026-05-04 21:58 41.03465 39.66156 2159 ft 158 kts 112°
2026-05-04 21:58 41.03058 39.67478 1917 ft 153 kts 111°
2026-05-04 21:59 41.02658 39.68776 1700 ft 152 kts 111°
2026-05-04 21:59 41.02257 39.70074 1472 ft 152 kts 111°
2026-05-04 21:59 41.01859 39.71364 1244 ft 151 kts 111°
2026-05-04 21:59 41.01462 39.72648 1016 ft 151 kts 111°
2026-05-04 22:00 41.01069 39.73926 773 ft 150 kts 111°
2026-05-04 22:00 41.00680 39.75198 535 ft 148 kts 111°
2026-05-04 22:00 41.00293 39.76456 323 ft 147 kts 111°
2026-05-04 22:00 40.99905 39.77697 128 ft 145 kts 112°
2026-05-04 22:01 40.99563 39.78806 102 ft 108 kts 112°
2026-05-04 22:01 40.99346 39.79520 108 ft 59 kts 112°
2026-05-04 22:01 40.99228 39.79890 107 ft 35 kts 114°
2026-05-04 22:01 40.99156 39.80110 104 ft 22 kts 114°
2026-05-04 22:02 40.99104 39.80222 103 ft 14 kts 138°
2026-05-04 22:02 40.99051 39.80281 104 ft 11 kts 110°
2026-05-04 22:02 40.99113 39.80241 102 ft 19 kts 298°
2026-05-04 22:02 40.99171 39.80058 104 ft 22 kts 292°
2026-05-04 22:03 40.99229 39.79872 106 ft 22 kts 292°
2026-05-04 22:03 40.99288 39.79673 107 ft 23 kts 291°
2026-05-04 22:03 40.99350 39.79470 106 ft 25 kts 293°
2026-05-04 22:03 40.99418 39.79249 106 ft 27 kts 293°
2026-05-04 22:04 40.99496 39.79015 102 ft 27 kts 293°
2026-05-04 22:04 40.99555 39.78782 102 ft 23 kts 282°
2026-05-04 22:04 40.99559 39.78588 106 ft 20 kts 262°
2026-05-04 22:04 40.99542 39.78431 115 ft 17 kts 266°
2026-05-04 22:05 40.99559 39.78327 115 ft 8 kts 292°
2026-05-04 22:05 40.99567 39.78302 113 ft 3 kts 292°
2026-05-04 22:05 40.99592 39.78226 113 ft 15 kts 294°
2026-05-04 22:05 40.99638 39.78085 112 ft 12 kts 293°
2026-05-04 22:06 40.99636 39.78002 113 ft 8 kts 224°
2026-05-04 22:06 40.99601 39.77983 114 ft 0 kts 202°